KA8OAD-1 Weather Reports


Display with metric or nautical units.
time (UTC)temp
F
wind
direction
speed
MPH
gust
MPH
rain 1hr
in
rain 24hr
in
rain mn
in
humidity
%
barometer
mb
20260831193504 87 292 1.0 5.0 0.00 0.02 0.02 57 1016.6
20260831193004 88 308 2.0 7.0 0.00 0.02 0.02 57 1016.7
20260831192004 88 318 2.0 8.0 0.00 0.02 0.02 55 1016.7
20260831191504 88 314 2.0 9.0 0.00 0.02 0.02 56 1016.8
20260831191004 88 314 3.0 9.0 0.00 0.02 0.02 56 1016.8
20260831190504 88 301 3.0 9.0 0.00 0.02 0.02 56 1016.8
20260831190004 88 300 2.0 9.0 0.00 0.02 0.02 56 1016.9
20260831185503 88 312 3.0 9.0 0.00 0.02 0.02 59 1017.0
20260831184503 87 274 2.0 5.0 0.00 0.02 0.02 62 1017.1
20260831183504 87 273 1.0 8.0 0.00 0.02 0.02 60 1017.3
20260831183004 87 260 1.0 5.0 0.00 0.02 0.02 58 1017.3
20260831182504 87 307 1.0 10.0 0.00 0.02 0.02 60 1017.4
20260831181504 87 255 2.0 5.0 0.00 0.02 0.02 59 1017.5
20260831180503 87 278 2.0 4.0 0.00 0.02 0.02 59 1017.3
20260831175504 87 276 2.0 5.0 0.00 0.02 0.02 58 1017.3
20260831175004 87 248 2.0 5.0 0.00 0.02 0.02 58 1017.3
20260831174005 87 264 2.0 9.0 0.00 0.02 0.02 59 1017.4
20260831173503 87 249 2.0 9.0 0.00 0.02 0.02 61 1017.5
20260831173006 86 256 1.0 5.0 0.00 0.02 0.02 63 1017.5
20260831172503 86 238 2.0 5.0 0.00 0.02 0.02 62 1017.5
20260831172004 85 238 2.0 7.0 0.00 0.02 0.02 63 1017.5
20260831165503 85 230 1.0 4.0 0.01 0.02 0.02 63 1017.5
20260831165005 85 243 2.0 5.0 0.01 0.02 0.02 63 1017.7
20260831164503 85 287 1.0 5.0 0.01 0.02 0.02 62 1017.7
20260831164004 84 281 2.0 5.0 0.01 0.02 0.02 63 1017.7
20260831163504 84 244 2.0 8.0 0.01 0.02 0.02 64 1017.6
20260831163004 84 229 2.0 8.0 0.01 0.02 0.02 64 1017.7
20260831162504 83 226 2.0 7.0 0.01 0.02 0.02 65 1017.7
20260831162004 83 235 1.0 5.0 0.01 0.02 0.02 64 1017.7
20260831160504 82 242 2.0 7.0 0.00 0.01 0.01 66 1017.7
20260831160004 81 242 2.0 7.0 0.00 0.01 0.01 67 1017.6
20260831155504 81 235 2.0 7.0 0.00 0.01 0.01 68 1017.7
20260831155004 81 234 2.0 6.0 0.00 0.01 0.01 70 1017.7
20260831154504 80 242 1.0 4.0 0.00 0.01 0.01 71 1017.7
20260831154004 80 241 1.0 4.0 0.00 0.01 0.01 73 1017.7
20260831153503 79 235 2.0 7.0 0.00 0.01 0.01 75 1017.7
20260831152503 78 248 1.0 7.0 0.00 0.01 0.01 81 1017.9
20260831151504 77 248 1.0 5.0 0.00 0.01 0.01 83 1017.9
20260831151004 76 250 2.0 4.0 0.00 0.01 0.01 84 1017.9
20260831150005 75 248 1.0 7.0 0.00 0.01 0.01 87 1017.8
20260831145504 75 248 1.0 7.0 0.00 0.01 0.01 88 1017.8
20260831145005 74 247 1.0 4.0 0.00 0.01 0.01 89 1017.8
20260831144504 74 243 1.0 4.0 0.00 0.01 0.01 89 1017.8
20260831143504 74 241 0.0 3.0 0.00 0.01 0.01 90 1017.9
20260831143004 74 241 0.0 2.0 0.00 0.01 0.01 90 1017.9
20260831142503 73 241 0.0 2.0 0.00 0.01 0.01 90 1017.9
20260831142005 73 241 0.0 2.0 0.00 0.01 0.01 91 1017.9
20260831141504 73 0 0.0 0.0 0.00 0.01 0.01 91 1017.9
20260831141004 73 0 0.0 0.0 0.00 0.01 0.01 92 1017.7
20260831140504 73 0 0.0 0.0 0.00 0.01 0.01 92 1017.8
20260831140005 73 0 0.0 0.0 0.00 0.01 0.01 92 1017.8
20260831135503 72 231 0.0 2.0 0.00 0.01 0.01 92 1017.8
20260831135004 72 167 0.0 3.0 0.00 0.01 0.01 92 1017.7
20260831134504 72 127 0.0 3.0 0.00 0.01 0.01 92 1017.7
20260831134005 72 120 0.0 1.0 0.00 0.01 0.01 92 1017.8
20260831132504 71 0 0.0 0.0 0.00 0.01 0.01 92 1017.8
20260831132005 71 0 0.0 0.0 0.00 0.01 0.01 92 1017.9
20260831131504 71 0 0.0 0.0 0.00 0.01 0.01 92 1017.8
20260831131004 71 0 0.0 0.0 0.00 0.01 0.01 92 1017.9
20260831130504 71 0 0.0 0.0 0.00 0.01 0.01 92 1017.8
20260831125004 70 120 0.0 3.0 0.00 0.01 0.01 91 1017.9
20260831124503 70 121 0.0 3.0 0.00 0.01 0.01 91 1017.9
20260831124005 70 0 0.0 0.0 0.00 0.01 0.01 91 1017.8
20260831123004 70 0 0.0 0.0 0.00 0.01 0.01 91 1017.6
20260831121504 70 0 0.0 0.0 0.00 0.01 0.01 91 1017.7
20260831121004 70 0 0.0 0.0 0.01 0.01 0.01 91 1017.9
20260831120504 70 0 0.0 0.0 0.01 0.01 0.01 90 1017.9
20260831120005 70 0 0.0 0.0 0.01 0.01 0.01 91 1018.0
20260831115004 70 0 0.0 0.0 0.01 0.01 0.01 90 1017.9
20260831114504 70 0 0.0 0.0 0.01 0.01 0.01 90 1017.9
20260831114004 70 0 0.0 0.0 0.01 0.01 0.01 90 1017.9
20260831113504 70 0 0.0 0.0 0.01 0.01 0.01 90 1017.9
20260831112503 70 0 0.0 0.0 0.01 0.01 0.01 90 1017.8
20260831112005 70 0 0.0 0.0 0.01 0.01 0.01 90 1017.8
20260831111504 70 0 0.0 0.0 0.01 0.01 0.01 90 1017.6
20260831111005 70 0 0.0 0.0 0.00 0.00 0.00 90 1017.6
20260831110503 70 0 0.0 0.0 0.00 0.00 0.00 90 1017.5
20260831110005 70 0 0.0 0.0 0.00 0.00 0.00 90 1017.4
20260831105503 70 0 0.0 0.0 0.00 0.00 0.00 90 1017.3
20260831105005 70 0 0.0 0.0 0.00 0.00 0.00 90 1017.3
20260831104503 70 0 0.0 0.0 0.00 0.00 0.00 90 1017.2
20260831104005 70 0 0.0 0.0 0.00 0.00 0.00 90 1017.1
20260831103004 70 0 0.0 0.0 0.00 0.00 0.00 90 1017.1
20260831102504 70 0 0.0 0.0 0.00 0.00 0.00 90 1017.1
20260831102004 70 0 0.0 0.0 0.00 0.00 0.00 90 1017.1
20260831101504 70 0 0.0 0.0 0.00 0.00 0.00 90 1017.2
20260831101004 70 0 0.0 0.0 0.00 0.00 0.00 90 1017.2
20260831100503 70 0 0.0 0.0 0.00 0.00 0.00 90 1017.2
20260831100005 70 0 0.0 0.0 0.00 0.00 0.00 90 1017.1
20260831095504 70 0 0.0 0.0 0.00 0.00 0.00 90 1017.0
20260831095004 70 0 0.0 0.0 0.00 0.00 0.00 90 1016.9
20260831094504 70 0 0.0 0.0 0.00 0.00 0.00 90 1016.9
20260831093504 70 0 0.0 0.0 0.00 0.00 0.00 90 1017.0
20260831093004 70 0 0.0 0.0 0.00 0.00 0.00 90 1017.0
20260831092504 70 0 0.0 0.0 0.00 0.00 0.00 90 1017.1
20260831092004 70 0 0.0 0.0 0.00 0.00 0.00 90 1017.1
20260831090504 70 0 0.0 0.0 0.00 0.00 0.00 90 1017.1
20260831090005 70 0 0.0 0.0 0.00 0.00 0.00 90 1017.2
20260831085503 70 0 0.0 0.0 0.00 0.00 0.00 90 1017.0
20260831084004 70 0 0.0 0.0 0.00 0.00 0.00 90 1017.1
20260831083504 70 0 0.0 0.0 0.00 0.00 0.00 90 1017.1
20260831083004 70 0 0.0 0.0 0.00 0.00 0.00 90 1017.1
20260831082503 70 0 0.0 0.0 0.00 0.00 0.00 90 1017.0
20260831082004 70 0 0.0 0.0 0.00 0.00 0.00 90 1017.0
20260831081503 70 0 0.0 0.0 0.00 0.00 0.00 90 1017.0
20260831081004 70 0 0.0 0.0 0.00 0.00 0.00 90 1017.0
20260831080504 70 0 0.0 0.0 0.00 0.00 0.00 90 1017.0
20260831080005 70 0 0.0 0.0 0.00 0.00 0.00 90 1017.1
20260831075503 70 0 0.0 0.0 0.00 0.00 0.00 90 1017.0
20260831075004 70 0 0.0 0.0 0.00 0.00 0.00 90 1017.1
20260831074504 70 0 0.0 0.0 0.00 0.00 0.00 90 1017.0
20260831074004 70 0 0.0 0.0 0.00 0.00 0.00 90 1017.0
20260831073504 70 0 0.0 0.0 0.00 0.00 0.00 90 1017.1
20260831073004 70 0 0.0 0.0 0.00 0.00 0.00 90 1017.1
20260831072504 70 0 0.0 0.0 0.00 0.00 0.00 90 1017.1
20260831072004 70 0 0.0 0.0 0.00 0.00 0.00 90 1017.2
20260831071503 70 0 0.0 0.0 0.00 0.00 0.00 90 1017.2
20260831071005 70 0 0.0 0.0 0.00 0.00 0.00 90 1017.2
20260831070503 71 0 0.0 0.0 0.00 0.00 0.00 90 1017.2
20260831070004 71 0 0.0 0.0 0.00 0.00 0.00 90 1017.2
20260831065504 71 0 0.0 0.0 0.00 0.00 0.00 90 1017.3
20260831065005 71 0 0.0 0.0 0.00 0.00 0.00 90 1017.3
20260831064504 71 0 0.0 0.0 0.00 0.00 0.00 90 1017.4
20260831064005 71 0 0.0 0.0 0.00 0.00 0.00 90 1017.5
20260831063004 71 0 0.0 0.0 0.00 0.00 0.00 90 1017.5
20260831062503 71 0 0.0 0.0 0.00 0.00 0.00 90 1017.5
20260831062004 71 0 0.0 0.0 0.00 0.00 0.00 90 1017.5
20260831061504 71 0 0.0 0.0 0.00 0.00 0.00 90 1017.6
20260831060504 71 0 0.0 0.0 0.00 0.00 0.00 90 1017.7
20260831060004 71 0 0.0 0.0 0.00 0.00 0.00 90 1017.7
20260831055503 71 0 0.0 0.0 0.00 0.00 0.00 90 1017.8
20260831055005 71 0 0.0 0.0 0.00 0.00 0.00 90 1017.7
20260831054004 71 0 0.0 0.0 0.00 0.00 0.00 90 1017.7
20260831053504 71 0 0.0 0.0 0.00 0.00 0.00 90 1017.7
20260831053005 71 0 0.0 0.0 0.00 0.00 0.00 90 1017.8
20260831052004 71 0 0.0 0.0 0.00 0.00 0.00 90 1017.9
20260831051004 71 0 0.0 0.0 0.00 0.00 0.00 90 1018.1
20260831050504 71 0 0.0 0.0 0.00 0.00 0.00 90 1018.0
20260831045005 71 0 0.0 0.0 0.00 0.00 0.00 90 1018.0
20260831044503 71 0 0.0 0.0 0.00 0.00 0.00 90 1017.9
20260831043504 71 0 0.0 0.0 0.00 0.00 0.00 90 1017.9
20260831043004 71 0 0.0 0.0 0.00 0.00 0.00 90 1018.0
20260831042503 71 0 0.0 0.0 0.00 0.00 0.00 90 1018.0
20260831042004 71 0 0.0 0.0 0.00 0.00 0.00 90 1018.0
20260831041504 71 0 0.0 0.0 0.00 0.00 0.00 90 1017.9
20260831040504 71 124 0.0 3.0 0.00 0.00 0.00 90 1017.8
20260831040007 71 0 0.0 0.0 0.00 0.00 0.00 90 1017.7
20260831035505 71 0 0.0 0.0 0.00 0.00 0.00 89 1017.9
20260831035005 71 0 0.0 0.0 0.00 0.00 0.00 89 1017.8
20260831034504 71 0 0.0 0.0 0.00 0.00 0.00 89 1018.0
20260831034004 71 0 0.0 0.0 0.00 0.00 0.00 89 1018.2
20260831033504 71 0 0.0 0.0 0.00 0.00 0.00 89 1018.2
20260831033005 71 0 0.0 0.0 0.00 0.00 0.00 89 1018.3
20260831032503 71 0 0.0 0.0 0.00 0.00 0.00 88 1018.4
20260831032005 72 0 0.0 0.0 0.00 0.00 0.00 88 1018.3
20260831031503 72 0 0.0 0.0 0.00 0.00 0.00 88 1018.3
20260831031005 72 0 0.0 0.0 0.00 0.00 0.00 88 1018.4
20260831030005 72 0 0.0 0.0 0.00 0.00 0.00 88 1018.5
20260831025503 72 0 0.0 0.0 0.00 0.00 0.00 88 1018.6
20260831025005 72 0 0.0 0.0 0.00 0.00 0.00 89 1018.6
20260831024503 72 0 0.0 0.0 0.00 0.00 0.00 89 1018.6
20260831024004 72 0 0.0 0.0 0.00 0.00 0.00 89 1018.7
20260831023504 72 0 0.0 0.0 0.00 0.00 0.00 89 1018.7
20260831023004 72 0 0.0 0.0 0.00 0.00 0.00 88 1018.7
20260831022504 72 0 0.0 0.0 0.00 0.00 0.00 88 1018.6
20260831022004 72 0 0.0 0.0 0.00 0.00 0.00 88 1018.5
20260831021504 72 0 0.0 0.0 0.00 0.00 0.00 88 1018.5
20260831021004 72 0 0.0 0.0 0.00 0.00 0.00 88 1018.6
20260831020005 72 0 0.0 0.0 0.00 0.00 0.00 88 1018.9
20260831015503 72 0 0.0 0.0 0.00 0.00 0.00 87 1018.9
20260831015005 72 0 0.0 0.0 0.00 0.00 0.00 87 1018.9
20260831014503 73 0 0.0 0.0 0.00 0.00 0.00 87 1018.9
20260831014004 73 0 0.0 0.0 0.00 0.00 0.00 87 1018.9
20260831013504 73 0 0.0 0.0 0.00 0.00 0.00 87 1019.0
20260831013004 73 0 0.0 0.0 0.00 0.00 0.00 87 1019.0
20260831012504 73 0 0.0 0.0 0.00 0.00 0.00 87 1018.9
20260831012004 73 0 0.0 0.0 0.00 0.00 0.00 87 1019.0
20260831011504 73 0 0.0 0.0 0.00 0.00 0.00 86 1018.9
20260831011004 73 0 0.0 0.0 0.00 0.00 0.00 86 1018.9
20260831010504 73 0 0.0 0.0 0.00 0.00 0.00 86 1018.8
20260831010005 73 0 0.0 0.0 0.00 0.00 0.00 85 1018.8
20260831005503 74 0 0.0 0.0 0.00 0.00 0.00 85 1018.8
20260831005004 74 0 0.0 0.0 0.00 0.00 0.00 85 1018.7
20260831004504 74 0 0.0 0.0 0.00 0.00 0.00 84 1018.8
20260831004004 74 0 0.0 0.0 0.00 0.00 0.00 84 1018.8
20260831003504 74 0 0.0 0.0 0.00 0.00 0.00 84 1018.8
20260831003005 74 0 0.0 0.0 0.00 0.00 0.00 84 1018.8
20260831002503 74 0 0.0 0.0 0.00 0.00 0.00 84 1018.7
20260831002005 74 0 0.0 0.0 0.00 0.00 0.00 83 1018.6
20260831001504 74 0 0.0 0.0 0.00 0.00 0.00 83 1018.6
20260831001005 75 0 0.0 0.0 0.00 0.00 0.00 83 1018.5
20260830235503 75 0 0.0 0.0 0.00 0.00 0.00 82 1018.2
20260830234504 75 0 0.0 0.0 0.00 0.00 0.00 81 1018.1
20260830234004 75 0 0.0 0.0 0.00 0.00 0.00 81 1017.9
20260830233005 75 0 0.0 0.0 0.00 0.00 0.00 81 1017.8
20260830232005 75 0 0.0 0.0 0.00 0.00 0.00 81 1017.5
20260830231503 75 0 0.0 0.0 0.00 0.00 0.00 81 1017.4
20260830231005 76 0 0.0 0.0 0.00 0.00 0.00 81 1017.3
20260830230503 76 0 0.0 0.0 0.00 0.00 0.00 81 1017.2
20260830225503 76 0 0.0 0.0 0.00 0.00 0.00 81 1017.1
20260830225005 76 0 0.0 0.0 0.00 0.00 0.00 81 1017.1
20260830224503 76 0 0.0 0.0 0.00 0.00 0.00 81 1017.0
20260830224004 76 0 0.0 0.0 0.00 0.00 0.00 80 1017.0
20260830223504 76 0 0.0 0.0 0.00 0.00 0.00 80 1017.1
20260830223005 76 0 0.0 0.0 0.00 0.00 0.00 80 1017.0
20260830222504 76 0 0.0 0.0 0.00 0.00 0.00 80 1016.9
20260830222004 76 131 1.0 5.0 0.00 0.00 0.00 80 1016.6
20260830221504 76 135 2.0 5.0 0.00 0.00 0.00 80 1016.4
20260830221004 76 137 1.0 5.0 0.00 0.00 0.00 80 1016.3
20260830220004 76 232 0.0 1.0 0.00 0.00 0.00 79 1017.0
20260830215504 76 233 0.0 2.0 0.00 0.00 0.00 79 1017.0
20260830214504 76 0 0.0 0.0 0.00 0.00 0.00 79 1017.2
20260830214004 76 235 0.0 1.0 0.00 0.00 0.00 79 1017.2
20260830213504 76 235 0.0 1.0 0.00 0.00 0.00 79 1017.3
20260830212504 76 235 0.0 1.0 0.00 0.00 0.00 79 1017.2
20260830212004 76 0 0.0 0.0 0.00 0.00 0.00 79 1017.3
20260830211504 76 235 0.0 1.0 0.00 0.00 0.00 79 1017.4
20260830211004 76 235 0.0 2.0 0.00 0.00 0.00 79 1017.4
20260830210505 76 234 0.0 3.0 0.00 0.00 0.00 78 1017.3
20260830210005 76 234 0.0 3.0 0.00 0.00 0.00 78 1017.3
20260830205004 76 229 0.0 1.0 0.00 0.00 0.00 77 1017.3
20260830204504 76 229 0.0 1.0 0.00 0.00 0.00 77 1017.3
20260830204004 76 0 0.0 0.0 0.00 0.00 0.00 76 1017.5
20260830203503 77 0 0.0 0.0 0.00 0.00 0.00 76 1017.5
20260830203005 77 0 0.0 0.0 0.00 0.00 0.00 77 1017.5
20260830202503 77 0 0.0 0.0 0.00 0.00 0.00 76 1017.5
20260830201503 77 0 0.0 0.0 0.00 0.00 0.00 74 1017.7
20260830201005 77 230 0.0 2.0 0.00 0.00 0.00 73 1017.8
20260830200503 77 230 0.0 2.0 0.00 0.00 0.00 72 1018.0
20260830195004 78 231 0.0 3.0 0.00 0.00 0.00 70 1018.1
20260830194004 78 232 0.0 3.0 0.00 0.00 0.00 68 1018.1